Aérodrome :
LOGIN :

S'inscrire | Disclaimer

   EN    FR    IT 

 










Légende :    VFR   VFR Marginal   IFR   IFR Intensif   IFR Très Intensif
Visi : 
Plafond : 
>= 8 km
>= 3000ft
5 à 8 km
1000 à 3000 ft
1500m à 5 km
500 à 1000 ft
800 à 1500m
200 à 500 ft
< 800m
< 200 ft
Symboles :   Orages  Brouillard  Fortes neiges  Fortes précipitations  Vent > 20 kt
SIGMETs :   Divers  Orages  Givrage  Turbulence  Onde Orograph.  Cendres Volcan.






- Altitude de l'aérodrome : 348 ft
- Code IATA : LDV


LFRJ - Landivisiau

DERNIER METAR :
  • 110300Z AUTO 17007KT CAVOK 06/05 Q1005

METARs EXPIRÉS :
  • 110230Z AUTO 15007KT CAVOK 06/06 Q1005
  • 110200Z AUTO 16005KT 9999 FEW007/// ///CB 07/06 Q1005
  • 110130Z AUTO 23010KT 190V260 5000 RA BR SCT017/// BKN044/// BKN078/// ///TCU 07/06 Q1006
  • 110100Z AUTO 18008KT 9999 ///CB 06/06 Q1005
  • 110030Z AUTO 17006KT CAVOK 06/05 Q1005

Prévision TAF périmée.



MET'MAP, la Météo Aéronautique d'un coup d'oeil ! - Copyright ORBIFLY Décembre 2007 - Disclaimer

ORBIFLY MET'MAP TEAM :

Programmation & Développement : Alexandra Zaïnal
Sur une idée originale de : Baudouin d'Aumeries
Assistance à la programmation : Marc-Olivier Méhu
Soutien technique & logistique : Manuel Goepfert

Contact : metmap@orbifly.com




SOURCES & CREDITS :

   NOAA